Hourly Data Report for October 18, 2016

All times are specified in Local Standard Time (LST). Add 1 hour to adjust for Daylight Saving Time where and when it is observed.

OTTAWA INTL A
ONTARIO

45°19'00.000" N
75°40'00.000" W
114.90 m
6106001
71628
YOW

Download Data

Hourly Data (October 2016)
Hourly Data Report for October 18, 2016
Temp Definition
°C
Dew Point Temp Definition
°C
Rel Hum Definition
%
Wind Dir Definition
10's deg

Wind Spd Definition
km/h
Visibility Definition
km
Stn Press Definition
kPa
Hmdx Definition


Wind Chill Definition


Weather Definition


TIME
00:00 Legend Double Dagger 10.3 5.5 72 8 19 16.1 99.57     Thunderstorms,Rain
01:00 Legend Double Dagger 8.3 6.9 91 10 23 16.1 99.53     Thunderstorms,Rain
02:00 Legend Double Dagger 8.1 7.2 94 9 18 24.1 99.51     LegendNANA
03:00 Legend Double Dagger 8.2 7.5 95 9 17 24.1 99.43     LegendNANA
04:00 Legend Double Dagger 8.4 7.8 96 9 15 24.1 99.35     Cloudy
05:00 Legend Double Dagger 8.4 7.8 96 7 23 24.1 99.30     LegendNANA
06:00 Legend Double Dagger 8.5 8.2 98 8 15 24.1 99.20     Rain
07:00 Legend Double Dagger 8.6 8.3 98 8 12 24.1 99.15     Cloudy
08:00 Legend Double Dagger 10.5 10.2 98 10 12 24.1 99.08     LegendNANA
09:00 Legend Double Dagger 14.9 13.1 89 14 16 24.1 98.97     LegendNANA
10:00 Legend Double Dagger 18.4 15.9 85 17 10 24.1 98.86     Cloudy
11:00 Legend Double Dagger 22.7 16.4 67 20 27 24.1 98.75 28   LegendNANA
12:00 Legend Double Dagger 24.0 16.7 63 21 32 24.1 98.66 29   LegendNANA
13:00 Legend Double Dagger 23.4 16.6 65 20 25 24.1 98.55 28   Cloudy
14:00 Legend Double Dagger 23.4 16.3 64 22 42 24.1 98.53 28   LegendNANA
15:00 Legend Double Dagger 22.9 16.8 68 21 41 24.1 98.51 28   Thunderstorms
16:00 Legend Double Dagger 23.0 16.9 68 22 30 24.1 98.55 28   Mostly Cloudy
17:00 Legend Double Dagger 22.8 16.9 69 22 38 24.1 98.60 28   LegendNANA
18:00 Legend Double Dagger 21.6 17.1 75 22 29 24.1 98.67 27   LegendNANA
19:00 Legend Double Dagger 19.8 18.3 91 22 19 24.1 98.80     Rain
20:00 Legend Double Dagger 19.6 17.9 90 26 18 24.1 98.90     LegendNANA
21:00 Legend Double Dagger 18.7 14.6 77 30 27 24.1 99.05     LegendNANA
22:00 Legend Double Dagger 16.1 11.1 72 29 17 24.1 99.19     Mainly Clear
23:00 Legend Double Dagger 13.7 9.4 75 30 14 24.1 99.33     LegendNANA

Notes on Data Quality.

Legend

  • E = Estimated
  • M = Missing
  • NA = Not Available
  • ‡ = Partner data that is not subject to review by the National Climate Archives
Date modified: